ZHANGHENG 1-01 (CSES)

Last updated on Tue Jun 17 2025 00:03:32 GMT+0000 (Coordinated Universal Time)

1 43194U 18015C 25167.58033242 .00007596 00000+0 34533-3 0 9991 2 43194 97.6503 321.8237 0012641 132.8307 227.3992 15.20967723409073

Satellite not in orbit

ZHANGHENG 1-01 (CSES)